This is the latest recevied weather packets stored in our database for station/object K0CVS. If no packets are shown the sender has not sent any weather packets the latest 10 day(s).
| Time | Temp. | Humidity | Pressure | Rain* | Wind** | Luminosity | Snow |
|---|---|---|---|---|---|---|---|
| 1777163819 | 22.22° C | 53% | 1007.8 hPa | 0 mm | - | 7 W/m² | - |
| 1777163515 | 22.22° C | 53% | 1007.7 hPa | 0 mm | - | 9 W/m² | - |
| 1777163211 | 22.22° C | 52% | 1007.5 hPa | 0 mm | - | 11 W/m² | - |
| 1777162907 | 22.78° C | 52% | 1007.4 hPa | 0 mm | - | 13 W/m² | - |
| 1777162601 | 22.78° C | 52% | 1007.5 hPa | 0 mm | - | 14 W/m² | - |
| 1777162301 | 22.78° C | 52% | 1007.6 hPa | 0 mm | - | 14 W/m² | - |
| 1777161997 | 22.78° C | 52% | 1007.4 hPa | 0 mm | - | 13 W/m² | - |
| 1777161687 | 22.78° C | 52% | 1007.5 hPa | 0 mm | - | 16 W/m² | - |
| 1777161384 | 22.78° C | 52% | 1007.4 hPa | 0 mm | - | 25 W/m² | - |
| 1777161080 | 22.78° C | 52% | 1007.4 hPa | 0 mm | - | 34 W/m² | - |
| 1777160776 | 22.78° C | 53% | 1007.2 hPa | 0 mm | - | 36 W/m² | - |
| 1777160471 | 22.78° C | 53% | 1007.1 hPa | 0 mm | - | 33 W/m² | - |
| 1777160168 | 22.78° C | 53% | 1007.5 hPa | 0 mm | - | 27 W/m² | - |
| 1777159863 | 22.78° C | 53% | 1008.1 hPa | 0 mm | - | 21 W/m² | - |
| 1777159559 | 22.78° C | 53% | 1008.3 hPa | 0 mm | - | 22 W/m² | - |
| 1777159256 | 22.78° C | 53% | 1008.4 hPa | 0 mm | - | 35 W/m² | - |
| 1777158952 | 23.33° C | 52% | 1008.4 hPa | 0 mm | - | 51 W/m² | - |
| 1777158652 | 23.33° C | 52% | 1008.6 hPa | 0 mm | - | 49 W/m² | - |
| 1777158347 | 23.33° C | 51% | 1008.6 hPa | 0 mm | - | 45 W/m² | - |
| 1777158044 | 23.33° C | 51% | 1008.6 hPa | 0 mm | - | 55 W/m² | - |
| 1777157744 | 23.33° C | 51% | 1008.8 hPa | 0 mm | - | 48 W/m² | - |
| 1777157440 | 23.33° C | 50% | 1008.8 hPa | 0 mm | - | 42 W/m² | - |
| 1777157136 | 23.33° C | 50% | 1009 hPa | 0 mm | - | 43 W/m² | - |
| 1777156832 | 23.33° C | 50% | 1009 hPa | 0 mm | - | 60 W/m² | - |
| 1777156532 | 23.33° C | 50% | 1009.2 hPa | 0 mm | - | 58 W/m² | - |
* Rain latest hour (hover to see other rain measurements)
** Current wind speed in m/s (hover to see current wind gust speed)